timestamp,wind_dir_avg,wind_spd_avg,wind_spd_max_dir,wind_spd_gust,battery_voltage,lat,long
2020-11-01 00:04:01+00:00,,,,,12.65,47.59359,-54.27349
2020-11-01 00:14:01+00:00,,,,,12.65,47.59359,-54.27349
2020-11-01 00:24:01+00:00,,,,,12.65,47.59359,-54.27349
2020-11-01 00:34:01+00:00,,,,,12.65,47.59359,-54.27349
2020-11-01 00:44:01+00:00,,,,,12.65,47.59359,-54.27349
2020-11-01 00:54:01+00:00,,,,,12.65,47.59359,-54.27349
2020-11-01 01:04:01+00:00,,,,,12.65,47.59359,-54.27349
2020-11-01 01:14:01+00:00,,,,,12.65,47.59359,-54.27349
2020-11-01 01:24:01+00:00,,,,,12.65,47.59359,-54.27349
2020-11-01 01:34:01+00:00,,,,,12.65,47.59359,-54.27349
2020-11-01 01:44:01+00:00,,,,,12.65,47.59359,-54.27349
2020-11-01 01:54:01+00:00,,,,,12.65,47.59359,-54.27349
2020-11-01 02:04:01+00:00,,,,,12.65,47.59359,-54.27349
2020-11-01 02:14:01+00:00,,,,,12.57,47.59359,-54.27349
2020-11-01 02:24:01+00:00,,,,,12.57,47.59359,-54.27349
2020-11-01 02:34:01+00:00,,,,,12.57,47.59359,-54.27349
2020-11-01 02:44:01+00:00,,,,,12.57,47.59359,-54.27349
2020-11-01 02:54:01+00:00,,,,,12.57,47.59359,-54.27349
2020-11-01 03:04:01+00:00,,,,,12.57,47.59359,-54.27349
2020-11-01 03:14:01+00:00,,,,,12.57,47.59359,-54.27349
2020-11-01 03:24:01+00:00,,,,,12.57,47.59359,-54.27349
2020-11-01 03:34:01+00:00,,,,,12.57,47.59359,-54.27349
2020-11-01 03:44:01+00:00,,,,,12.57,47.59359,-54.27349
2020-11-01 03:54:01+00:00,,,,,12.57,47.59359,-54.27349
2020-11-01 04:04:01+00:00,,,,,12.57,47.59359,-54.27349
2020-11-01 04:14:01+00:00,,,,,12.57,47.59359,-54.27349
2020-11-01 04:24:01+00:00,,,,,12.57,47.59359,-54.27349
2020-11-01 04:34:01+00:00,,,,,12.57,47.59359,-54.27349
2020-11-01 04:44:01+00:00,,,,,12.57,47.59359,-54.27349
2020-11-01 04:54:01+00:00,,,,,12.57,47.59359,-54.27349
2020-11-01 05:04:01+00:00,,,,,12.57,47.59359,-54.27349
2020-11-01 05:14:01+00:00,,,,,12.57,47.59359,-54.27349
2020-11-01 05:24:01+00:00,,,,,12.57,47.59359,-54.27349
2020-11-01 05:34:01+00:00,,,,,12.57,47.59359,-54.27349
2020-11-01 05:44:01+00:00,,,,,12.57,47.59359,-54.27349
2020-11-01 05:54:01+00:00,,,,,12.57,47.59359,-54.27349
2020-11-01 06:04:01+00:00,,,,,12.57,47.59359,-54.27349
2020-11-01 06:14:01+00:00,,,,,12.49,47.59359,-54.27349
2020-11-01 06:24:01+00:00,,,,,12.49,47.59359,-54.27349
2020-11-01 06:34:01+00:00,,,,,12.49,47.59359,-54.27349
2020-11-01 06:44:01+00:00,,,,,12.49,47.59359,-54.27349
2020-11-01 06:54:01+00:00,,,,,12.49,47.59359,-54.27349
2020-11-01 07:04:01+00:00,,,,,12.49,47.59359,-54.27349
2020-11-01 07:14:01+00:00,,,,,12.49,47.59359,-54.27349
2020-11-01 07:24:01+00:00,,,,,12.49,47.59359,-54.27349
2020-11-01 07:34:01+00:00,,,,,12.49,47.59359,-54.27349
2020-11-01 07:44:01+00:00,,,,,12.49,47.59359,-54.27349
2020-11-01 07:54:01+00:00,,,,,12.49,47.59359,-54.27349
2020-11-01 08:04:01+00:00,,,,,12.49,47.59359,-54.27349
2020-11-01 08:14:01+00:00,,,,,12.49,47.59359,-54.27349
2020-11-01 08:24:01+00:00,,,,,12.49,47.59359,-54.27349
2020-11-01 08:34:01+00:00,,,,,12.49,47.59359,-54.27349
2020-11-01 08:44:01+00:00,,,,,12.49,47.59359,-54.27349
2020-11-01 08:54:01+00:00,,,,,12.49,47.59359,-54.27349
2020-11-01 09:04:01+00:00,,,,,12.49,47.59359,-54.27349
2020-11-01 09:14:01+00:00,,,,,12.41,47.59359,-54.27349
2020-11-01 09:24:01+00:00,,,,,12.41,47.59359,-54.27349
2020-11-01 09:34:01+00:00,,,,,12.41,47.59359,-54.27349
2020-11-01 09:44:01+00:00,,,,,12.41,47.59359,-54.27349
2020-11-01 09:54:01+00:00,,,,,12.41,47.59359,-54.27349
2020-11-01 10:04:01+00:00,,,,,12.41,47.59359,-54.27349
2020-11-01 10:14:01+00:00,,,,,12.41,47.59359,-54.27349
2020-11-01 10:24:01+00:00,,,,,12.41,47.59359,-54.27349
2020-11-01 10:34:01+00:00,,,,,12.41,47.59359,-54.27349
2020-11-01 10:44:01+00:00,,,,,12.41,47.59359,-54.27349
2020-11-01 10:54:01+00:00,,,,,12.41,47.59359,-54.27349
2020-11-01 11:04:01+00:00,,,,,12.41,47.59359,-54.27349
2020-11-01 11:14:01+00:00,,,,,13.84,47.59359,-54.27349
2020-11-01 11:24:01+00:00,,,,,13.84,47.59359,-54.27349
2020-11-01 11:34:01+00:00,,,,,13.84,47.59359,-54.27349
2020-11-01 11:44:01+00:00,,,,,13.84,47.59359,-54.27349
2020-11-01 11:54:01+00:00,,,,,13.84,47.59359,-54.27349
2020-11-01 12:04:01+00:00,,,,,13.84,47.59359,-54.27349
2020-11-01 12:14:01+00:00,,,,,14.16,47.59359,-54.27349
2020-11-01 12:24:01+00:00,,,,,14.16,47.59359,-54.27349
2020-11-01 12:34:01+00:00,,,,,14.16,47.59359,-54.27349
2020-11-01 12:44:01+00:00,,,,,14.16,47.59359,-54.27349
2020-11-01 12:54:01+00:00,,,,,14.16,47.59359,-54.27349
2020-11-01 13:04:01+00:00,,,,,14.16,47.59359,-54.27349
2020-11-01 13:14:01+00:00,,,,,13.44,47.59359,-54.27349
2020-11-01 13:24:01+00:00,,,,,13.44,47.59359,-54.27349
2020-11-01 13:34:01+00:00,,,,,13.44,47.59359,-54.27349
2020-11-01 13:44:01+00:00,,,,,13.44,47.59359,-54.27349
2020-11-01 13:54:01+00:00,,,,,13.44,47.59359,-54.27349
2020-11-01 14:04:01+00:00,,,,,13.44,47.59359,-54.27349
2020-11-01 14:14:01+00:00,,,,,13.21,47.59359,-54.27349
2020-11-01 14:24:01+00:00,,,,,13.21,47.59359,-54.27349
2020-11-01 14:34:01+00:00,,,,,13.21,47.59359,-54.27349
2020-11-01 14:44:01+00:00,,,,,13.21,47.59359,-54.27349
2020-11-01 14:54:01+00:00,,,,,13.21,47.59359,-54.27349
2020-11-01 15:04:01+00:00,,,,,13.21,47.59359,-54.27349
2020-11-01 15:14:01+00:00,264.0,9.13,262.0,10.67,12.89,47.59359,-54.27349
2020-11-01 15:24:01+00:00,287.0,9.81,281.0,10.96,12.89,47.59359,-54.27349
2020-11-01 15:34:01+00:00,289.0,7.09,298.0,8.4,12.89,47.59359,-54.27349
2020-11-01 15:44:01+00:00,262.0,7.13,250.0,8.49,12.89,47.59359,-54.27349
2020-11-01 15:54:01+00:00,275.0,6.71,274.0,7.94,12.89,47.59359,-54.27349
2020-11-01 16:04:01+00:00,262.0,6.43,261.0,7.91,12.89,47.59359,-54.27349
2020-11-01 16:14:01+00:00,256.0,8.07,254.0,9.97,14.32,47.59359,-54.27349
2020-11-01 16:24:01+00:00,246.0,6.98,243.0,7.78,14.32,47.59359,-54.27349
2020-11-01 16:34:01+00:00,261.0,6.34,268.0,7.3,14.32,47.59359,-54.27349
2020-11-01 16:44:01+00:00,258.0,7.67,254.0,8.95,14.32,47.59359,-54.27349
2020-11-01 16:54:01+00:00,263.0,6.66,261.0,7.28,14.32,47.59359,-54.27349
2020-11-01 17:04:01+00:00,244.0,8.17,246.0,9.01,14.32,47.59359,-54.27349
2020-11-01 17:14:01+00:00,247.0,7.66,244.0,8.85,13.84,47.59359,-54.27349
2020-11-01 17:24:01+00:00,244.0,10.38,240.0,11.68,13.84,47.59359,-54.27349
2020-11-01 17:34:01+00:00,243.0,9.61,239.0,10.51,13.84,47.59359,-54.27349
2020-11-01 17:44:01+00:00,239.0,7.99,238.0,9.69,13.84,47.59359,-54.27349
2020-11-01 17:54:01+00:00,233.0,9.39,233.0,11.02,13.84,47.59359,-54.27349
2020-11-01 18:04:01+00:00,228.0,9.93,242.0,13.08,13.84,47.59359,-54.27349
2020-11-01 18:14:01+00:00,240.0,7.63,232.0,9.39,13.84,47.59359,-54.27349
2020-11-01 18:24:01+00:00,240.0,9.8,239.0,11.68,13.84,47.59359,-54.27349
2020-11-01 18:34:01+00:00,241.0,8.22,242.0,9.95,13.84,47.59359,-54.27349
2020-11-01 18:44:01+00:00,234.0,9.41,233.0,11.03,13.84,47.59359,-54.27349
2020-11-01 18:54:01+00:00,237.0,8.33,236.0,9.76,13.84,47.59359,-54.27349
2020-11-01 19:04:01+00:00,231.0,8.44,233.0,9.79,13.84,47.59359,-54.27349
2020-11-01 19:14:01+00:00,252.0,9.18,254.0,10.47,13.6,47.59359,-54.27349
2020-11-01 19:24:01+00:00,232.0,9.27,227.0,11.36,13.6,47.59359,-54.27349
2020-11-01 19:34:01+00:00,234.0,9.11,232.0,11.12,13.6,47.59359,-54.27349
2020-11-01 19:44:01+00:00,234.0,10.32,243.0,12.13,13.6,47.59359,-54.27349
2020-11-01 19:54:01+00:00,234.0,9.49,233.0,10.85,13.6,47.59359,-54.27349
2020-11-01 20:04:01+00:00,234.0,10.02,236.0,11.89,13.6,47.59359,-54.27349
2020-11-01 20:14:01+00:00,228.0,9.68,230.0,11.5,13.44,47.59359,-54.27349
2020-11-01 20:24:01+00:00,238.0,9.88,241.0,10.95,13.44,47.59359,-54.27349
2020-11-01 20:34:01+00:00,240.0,11.49,238.0,13.07,13.44,47.59359,-54.27349
2020-11-01 20:44:01+00:00,233.0,8.86,239.0,10.4,13.44,47.59359,-54.27349
2020-11-01 20:54:01+00:00,233.0,9.42,235.0,11.82,13.44,47.59359,-54.27349
2020-11-01 21:04:01+00:00,246.0,11.55,250.0,13.27,13.44,47.59359,-54.27349
2020-11-01 21:14:01+00:00,252.0,11.29,251.0,13.0,12.81,47.59359,-54.27349
2020-11-01 21:24:01+00:00,252.0,8.66,256.0,10.26,12.81,47.59359,-54.27349
2020-11-01 21:34:01+00:00,251.0,9.04,254.0,9.84,12.81,47.59359,-54.27349
2020-11-01 21:44:01+00:00,238.0,8.38,235.0,10.26,12.81,47.59359,-54.27349
2020-11-01 21:54:01+00:00,243.0,8.64,240.0,9.62,12.81,47.59359,-54.27349
2020-11-01 22:04:01+00:00,232.0,8.84,230.0,10.4,12.81,47.59359,-54.27349
2020-11-01 22:14:01+00:00,232.0,8.4,243.0,10.1,12.65,47.59359,-54.27349
2020-11-01 22:24:01+00:00,233.0,9.01,232.0,10.65,12.65,47.59359,-54.27349
2020-11-01 22:34:01+00:00,237.0,9.57,237.0,10.68,12.65,47.59359,-54.27349
2020-11-01 22:44:01+00:00,240.0,10.0,240.0,11.2,12.65,47.59359,-54.27349
2020-11-01 22:54:01+00:00,237.0,10.11,233.0,11.98,12.65,47.59359,-54.27349
2020-11-01 23:04:01+00:00,231.0,9.3,233.0,10.91,12.65,47.59359,-54.27349
2020-11-01 23:14:01+00:00,228.0,7.51,238.0,9.55,12.57,47.59359,-54.27349
2020-11-01 23:24:01+00:00,238.0,11.35,237.0,13.03,12.57,47.59359,-54.27349
2020-11-01 23:34:01+00:00,227.0,11.08,231.0,13.39,12.57,47.59359,-54.27349
2020-11-01 23:44:01+00:00,231.0,10.19,246.0,12.99,12.57,47.59359,-54.27349
2020-11-01 23:54:01+00:00,247.0,10.63,244.0,12.27,12.57,47.59359,-54.27349
